sat.trackr.live / text

‹ back to catalog

STARLINK-11227 [DTC]

NORAD 60303 · 2024-133C

PAYLOAD ACTIVE UNKNOWN

§ Identity

Operator
Country
US
Launch date
2024-07-28
Launch site
AFWTR
Launch vehicle
Mass (kg)
RCS (m²)

Purposes: comms

External: N2YO · Heavens-Above · Gunter

§ Orbital elements

Epoch: 2026-09-21T00:47:55.126752Z

Period
91.74 min
Inclination
53.1579°
Eccentricity
0.0000883
Mean motion
15.69706822 rev/d
Perigee alt
359.1 km
Apogee alt
360.3 km
Semi-major
6,737.9 km
B*
1.7565e-6
RAAN
263.3501°
Arg perigee
76.9034°
Mean anomaly
283.2083°
Rev number
12,449

§ Raw data

STARLINK-11227 [DTC]1 60303U 24133C   26264.03327693 -.00000375  00000+0  17565-5 0  99922 60303  53.1579 263.3501 0000883  76.9034 283.2083 15.69706822124494

JSON: /api/v1/satellites/60303 · /tle

For live sub-satellite position, see the globe view (requires WebGL).

§ Visibility from observer

Set your observer location to see the next 7 days of passes ≥ 10°. The values pass through the URL so the page stays shareable.

No JS? Fill the form by hand. The geolocation button needs JavaScript.